User: anonymous   Login
Location: D�pe
(52.6057°N, 8.1808°E)
Time: 16:30:24
(UTC+00:00)
Language:

Landsat 5 - Orbit

View from above orbital plane
View from above orbital plane
View from above satellite
View from above satellite

Ground track
Ground track

The orbit data is extracted from the following two-line orbital elements,

1 14780U 84021A   21019.43410907  .00000283  00000-0  31944-4 0  9994
2 14780  98.1905 190.8429 0089994 174.2300 185.9977 14.92195811971524
Epoch (UTC): 19 January 2021 10:25:07
Eccentricity: 0.0089994
inclination: 98.1905°
perigee height: 528 km
apogee height: 654 km
right ascension of ascending node: 190.8429°
argument of perigee: 174.2300°
revolutions per day: 14.92195811
mean anomaly at epoch: 185.9977°
orbit number at epoch: 97152

The dashed part of the orbit path shows where the satellite is in the earth's shadow,  

DLR